Location: Corte Bragagnani
(45.3000°N, 11.1000°E)
Time: 06:15:02
(UTC+00:00)

STARLINK-29 - Pass Details

Date: 09 April 2020
Orbit: 387 x 401 km, 53.0° (Epoch: 29 May)

Event Time Altitude Azimuth Distance (km) Brightness Sun altitude
Rises 18:38:16 0° 229° (SW) 2,272 7.2 -8.2°
Reaches altitude 10° 18:40:20 10° 227° (SW) 1,423 6.1 -8.6°
Maximum altitude 18:43:29 67° 144° (SE) 431 2.9 -9.1°
Drops below altitude 10° 18:46:41 10° 62° (ENE) 1,440 5.4 -9.6°
Enters shadow 18:47:46 - 60° (ENE) 1,886 6.0 -9.8°
